Torna al catalogo

YAOGAN-43 02D

AttivoMilitareVLEO
NORAD 60948·PAYLOAD·🇨🇳 China

Lanciato Sep 3, 2024 da Xichang Satellite Launch Center

Loading…

Prossimi Passaggi (prossime 24 ore)

TLE

AggiornatoSource: Space-Track

Epoca: Sep 14, 2026, 17:28 UTC

1 60948U 24156D   26257.72782554  .00001007  00000-0  43340-4 0  9993
2 60948  34.9939 354.7840 0003551 322.1557  37.8907 15.22982788113108

Traccia YAOGAN-43 02D in tempo reale con AllMySat

Download on the App Store